Home > Weather > Nagasaki > Past weeks

Flag for Japan Past Weather in Nagasaki, Japan — Yesterday and Last 2 Weeks

Now
70 °F

Sprinkles. Broken clouds.


Feels Like: 70 °F
Forecast: 66 / 81 °F
Wind: 5 mph from Northwest

Location: Nagasaki Airport

Current Time: May 29, 2016 at 6:44:23 PM

Latest Report: May 29, 2016 at 6:00 PM


Visibility: N/A

Pressure: 29.56 "Hg

Humidity: 94%

Dew Point: 68 °F

Location of NagasakiLocation

Past Weather in Nagasaki — Graph

°F

Nagasaki Temperature Yesterday

Maximum temperature yesterday: 70 °F (at 4:00 PM)
Minimum temperature yesterday: 66 °F (at 7:00 AM)
Average temperature yesterday: 69 °F

High & Low Weather Summary for the Past Weeks

 TemperatureHumidityPressure
High86 °F (May 22, 2:00 PM)100% (May 28, 7:00 AM)30.12 "Hg (May 28, 7:00 AM)
Low55 °F (May 16, 9:00 PM)29% (May 22, 3:00 PM)29.59 "Hg (May 29, 2:00 PM)
Average73 °F68%29.87 "Hg
* Reported May 14 5:00 PM — May 29 5:00 PM, Nagasaki, Weather by CustomWeather, © 2016

Note: Actual official high and low records may vary slightly from our data, if they occured in-between our weather recording intervals... More about our weather records

Advertising

Nagasaki Weather History for the Previous 24 Hours

Scroll right to see more
 ConditionsComfort  
Time TempWeatherWind HumidityBarometerVisibility
5:00 PM
Sun, May 29
70 °FPartly sunny.9 mph100%29.59 "HgN/A
4:00 PM70 °FSprinkles. Partly sunny.9 mph100%29.59 "HgN/A
3:00 PM70 °FSprinkles. Fog.7 mph100%29.59 "Hg3 mi
2:00 PM70 °FSprinkles. Broken clouds.5 mph100%29.59 "Hg4 mi
1:00 PM70 °FSprinkles. Broken clouds.1 mph100%29.62 "Hg5 mi
12:45 PM72 °FSprinkles. Broken clouds.No wind94%29.62 "Hg4 mi
12:00 PM70 °FSprinkles. Broken clouds.1 mph100%29.62 "Hg4 mi
11:00 AM70 °FSprinkles. Fog.1 mph94%29.65 "Hg3 mi
10:02 AM70 °FRain showers. Fog.3 mph94%29.65 "Hg1 mi
10:00 AM70 °FRain showers. Fog.3 mph94%29.65 "Hg1 mi
9:48 AM70 °FLots of rain. Fog.3 mph94%29.65 "Hg1 mi
9:00 AM70 °FSprinkles. Broken clouds.3 mph94%29.65 "Hg5 mi
8:00 AM70 °FSprinkles. Broken clouds.5 mph94%29.68 "Hg4 mi
7:00 AM70 °FSprinkles. Fog.3 mph94%29.68 "Hg2 mi
9:00 PM
Sat, May 28
70 °FPassing clouds.7 mph88%29.71 "HgN/A
8:00 PM70 °FPartly cloudy.5 mph88%29.71 "HgN/A
7:00 PM70 °FPartly sunny.3 mph88%29.68 "HgN/A
6:00 PM70 °FBroken clouds.5 mph88%29.68 "HgN/A
Weather by CustomWeather, © 2016

See weather overviewHow to use our weather pages